This demonstration page uses our WeatherBlox Daily Observations layout. Learn more.

Left ArrowRight Arrow

41.12389, -100.76542

Hourly Observations for March 24, 2021

Temp ( °F °C ) Dew Point ( °F °C ) Humidity (%) Winds ( mph kmh ) Pressure ( in mb ) Visibility ( mi km ) Precip ( " mm )
12:53 am 00:53 Cloudy 40 4.4 32 0 73 73 NNW 13 20 29.90 1013 10 16 0.00 0.00
1:53 am 01:53 Cloudy 39 3.9 32 0 76 76 NNW 13 20 29.90 1012 10 16 0.00 0.00
2:53 am 02:53 Mostly Cloudy 37 2.8 32 0 82 82 NW 8 13 29.90 1012 10 16 0.00 0.00
3:53 am 03:53 Clear 35 1.7 28 -2.2 76 76 NW 9 15 29.90 1013 10 16 0.00 0.00
4:53 am 04:53 Clear 35 1.7 28 -2.2 76 76 WNW 13 20 29.93 1013 10 16 0.00 0.00
5:53 am 05:53 Clear 36 2.2 30 -1.1 79 79 NW 13 20 29.94 1014 10 16 0.00 0.00
6:53 am 06:53 Clear 36 2.2 30 -1.1 79 79 NW 14 22 29.96 1014 10 16 0.00 0.00
7:53 am 07:53 Sunny 37 2.8 30 -1.1 76 76 NNW 16 26 29.96 1014 10 16 0.00 0.00
8:53 am 08:53 Sunny 37 2.8 30 -1.1 76 76 NNW 16 26 29.97 1015 10 16 0.00 0.00
9:53 am 09:53 Mostly Sunny 40 4.4 30 -1.1 68 68 NNW 18 30 30.00 1016 10 16 0.00 0.00
10:11 am 10:11 Mostly Cloudy 40 4.4 30 -1.1 68 68 NNW 16 26 30.02 1017 10 16 0.00 0.00
10:53 am 10:53 Cloudy 42 5.6 31 -0.6 65 65 N 17 28 30.00 1016 10 16 0.00 0.00
11:53 am 11:53 Cloudy 43 6.1 31 -0.6 63 63 NNW 20 31 29.99 1016 10 16 0.00 0.00
12:53 pm 12:53 Cloudy 43 6.1 30 -1.1 60 60 NNW 14 22 29.97 1015 10 16 0.00 0.00
1:53 pm 13:53 Cloudy 44 6.7 30 -1.1 58 58 N 9 15 29.96 1015 10 16 0.00 0.00
2:53 pm 14:53 Mostly Cloudy 46 7.8 30 -1.1 54 54 undefined N/A 29.94 1014 10 16 0.00 0.00
3:53 pm 15:53 Mostly Cloudy 47 8.3 29 -1.7 50 50 Calm 29.92 1013 10 16 0.00 0.00
4:53 pm 16:53 Mostly Sunny 49 9.4 29 -1.7 46 46 VRB 3 6 29.90 1013 10 16 0.00 0.00
5:53 pm 17:53 Mostly Sunny 48 8.9 28 -2.2 46 46 ENE 5 7 29.88 1012 10 16 0.00 0.00
6:53 pm 18:53 Sunny 48 8.9 26 -3.3 42 42 Calm 29.88 1012 10 16 0.00 0.00
7:53 pm 19:53 Partly Cloudy 42 5.6 29 -1.7 60 60 ESE 7 11 29.87 1012 10 16 0.00 0.00
8:53 pm 20:53 Mostly Clear 36 2.2 27 -2.8 70 70 E 7 11 29.88 1012 10 16 0.00 0.00
9:53 pm 21:53 Clear 33 0.6 27 -2.8 78 78 ESE 7 11 29.90 1012 10 16 0.00 0.00
10:53 pm 22:53 Clear 32 0 28 -2.2 85 85 ESE 8 13 29.89 1012 10 16 0.00 0.00
11:53 pm 23:53 Clear 31 -0.6 27 -2.8 85 85 SE 7 11 29.88 1012 10 16 0.00 0.00

Powered by AerisWeather